This demonstration page uses our WeatherBlox Daily Observations layout. Learn more.

39.92423, -83.80882

Hourly Observations for April 8, 2020

Temp ( °F °C ) Dew Point ( °F °C ) Humidity (%) Winds ( mph kmh ) Pressure ( in mb ) Visibility ( mi km ) Precip ( " mm )
12:56 am 00:56 Clear 67 19.4 60 15.6 79 79 WSW 14 22 29.66 1004 10 16.0934 0 0
1:56 am 01:56 Mostly Cloudy 67 19.4 61 16.1 81 81 WSW 14 22 29.64 1004 10 16.0934 0 0
2:38 am 02:38 Mostly Cloudy 66 19 63 17 88 88 WSW 14 22 29.64 1004 10 16.0934 0 0
2:52 am 02:52 Cloudy 66 19 63 17 88 88 W 12 19 29.64 1004 10 16.0934 0 0
2:56 am 02:56 Cloudy with Nearby Thunderstorms 67 19.4 63 17.2 87 87 W 10 17 29.65 1004 10 16.0934 0 0
3:33 am 03:33 Cloudy with Heavy Thunderstorms 61 16 59 15 94 94 WNW 16 26 29.66 1004 5 8.0467 0.21 5.334
3:56 am 03:56 Cloudy with Heavy Thunderstorms 59 15 59 15 100 100 W 26 43 29.62 1003 2.5 4.02335 0.64 16.256
4:07 am 04:07 Cloudy with Heavy Thunderstorms 57 14 57 14 100 100 WSW 16 26 29.66 1004 4 6.43736 0.28 7.112
4:16 am 04:16 Cloudy with Heavy Thunderstorms 57 14 57 14 100 100 NNW 31 50 29.66 1004 1.75 2.816345 0.7 17.78
4:22 am 04:22 Cloudy with Heavy Thunderstorms 57 14 57 14 100 100 W 20 31 29.64 1004 1.25 2.011675 0.93 23.622
4:25 am 04:25 Cloudy with Thunderstorms 59 15 59 15 100 100 W 25 41 29.64 1004 2.5 4.02335 0.94 23.876
4:32 am 04:32 Cloudy with Light Thunderstorms 61 16 61 16 100 100 NW 15 24 29.65 1004 10 16.0934 0.95 24.13
4:56 am 04:56 Cloudy with Nearby Thunderstorms 60 15.6 60 15.6 100 100 WNW 10 17 29.65 1004 9 14.48406 1.15 29.21
5:27 am 05:27 Cloudy 61 16 61 16 100 100 NW 10 17 29.66 1004 10 16.0934 0.02 0.508
5:44 am 05:44 Mostly Cloudy 61 16 61 16 100 100 WNW 8 13 29.66 1004 10 16.0934 0.02 0.508
5:56 am 05:56 Mostly Cloudy 61 16.1 61 16.1 100 100 NW 9 15 29.66 1004 10 16.0934 0.02 0.508
6:10 am 06:10 Mostly Cloudy with Nearby Thunderstorms 61 16 61 16 100 100 NNW 9 15 29.67 1005 10 16.0934 0 0
6:25 am 06:25 Mostly Cloudy 61 16 61 16 100 100 NNW 10 17 29.67 1005 10 16.0934 0 0
6:56 am 06:56 Mostly Clear 58 14.4 58 14.4 100 100 WNW 6 9 29.68 1005 10 16.0934 0 0
7:56 am 07:56 Mostly Cloudy 58 14.4 58 14.4 100 100 W 7 11 29.7 1006 7 11.26538 0 0
8:56 am 08:56 Sunny 61 16.1 61 16.1 100 100 NW 6 9 29.72 1007 10 16.0934 0 0
9:56 am 09:56 Mostly Sunny 62 16.7 59 15 90 90 NNW 12 19 29.73 1007 10 16.0934 0 0
10:09 am 10:09 Mostly Cloudy 61 16 59 15 94 94 NNW 13 20 29.74 1007 9 14.48406 0 0
10:56 am 10:56 Cloudy 61 16.1 58 14.4 90 90 NNW 13 20 29.75 1008 9 14.48406 0 0
11:56 am 11:56 Cloudy 62 16.7 59 15 90 90 NNW 10 17 29.77 1008 9 14.48406 0 0
12:20 pm 12:20 Partly Cloudy 63 17 57 14 83 83 WNW 13 20 29.76 1008 9 14.48406 0 0
12:56 pm 12:56 Partly Cloudy 64 17.8 59 15 84 84 NNW 7 11 29.76 1008 10 16.0934 0 0
1:13 pm 13:13 Mostly Cloudy 64 18 59 15 83 83 NNW 7 11 29.74 1007 9 14.48406 0 0
1:21 pm 13:21 Partly Cloudy 64 18 59 15 83 83 NNW 7 11 29.74 1007 9 14.48406 0 0
1:56 pm 13:56 Sunny 66 18.9 58 14.4 75 75 NW 10 17 29.74 1007 10 16.0934 0 0
2:56 pm 14:56 Sunny 69 20.6 58 14.4 68 68 N 7 11 29.72 1006 10 16.0934 0 0
3:56 pm 15:56 Sunny 71 21.7 52 11.1 51 51 N 7 11 29.7 1006 10 16.0934 0 0
4:56 pm 16:56 Sunny 73 22.8 47 8.3 40 40 WNW 6 9 29.68 1005 10 16.0934 0 0
5:56 pm 17:56 Sunny 72 22.2 44 6.7 37 37 Calm 29.65 1004 10 16.0934 0 0
6:56 pm 18:56 Sunny 71 21.7 47 8.3 42 42 ESE 3 6 29.63 1003 10 16.0934 0 0
7:56 pm 19:56 Sunny 64 17.8 51 10.6 63 63 SE 7 11 29.59 1002 10 16.0934 0 0
8:56 pm 20:56 Clear 64 17.8 48 8.9 56 56 SE 10 17 29.56 1001 10 16.0934 0 0
9:56 pm 21:56 Clear 63 17.2 51 10.6 65 65 SE 13 20 29.53 1000 10 16.0934 0 0
10:45 pm 22:45 Cloudy with Light Thunderstorms 63 17 52 11 68 68 NW 8 13 29.54 1000 10 16.0934 0.001 0.001
10:56 pm 22:56 Cloudy with Heavy Thunderstorms 60 15.6 54 12.2 80 80 NW 31 50 29.62 1003 8 12.87472 0 0
11:07 pm 23:07 Cloudy with Thunderstorms 55 13 55 13 100 100 NNW 24 39 29.64 1004 6 9.65604 0.07 1.778
11:34 pm 23:34 Cloudy with Heavy Rain 55 13 55 13 100 100 NNE 9 15 29.64 1004 7 11.26538 0.23 5.842
11:56 pm 23:56 Cloudy with Light Rain 55 12.8 55 12.8 100 100 SE 16 26 29.52 1000 10 16.0934 0.29 7.366

Powered by AerisWeather